Pagrindinis puslapis
METAR-TAF:

METAR-TAF

Oro uostai :

Sälen Trysil, Švedija

platuma: 61-09-32N, ilguma: 12-50-24E, Aukštis: 490 m

Dabartinis oras

Ataskaita buvo paskelbta 49 minutes, ne 22:50 UTC
Vėjas 8 kt iš Pietų
Temperatūra 12°C
Drėgmė 88%
Slėgis 1016 hPa
Matomumas 10 km arba daugiau

METAR: ESKS 022250Z AUTO 17008KT 9999 SCT071/// 12/10 Q1016

Laikas: 01:39 (23:39 UTC)


TAF: trūkstamas

Orai ataskaitas ir orų prognozės (METAR, TAF).

turimą stotys yra geltonos ir raudonos taškus žemėlapyje.

Perkelti pele per norėdami pamatyti stoties vardą.

Tada spustelėkite, norėdami matyti oro stebėjimo ir prognozės.

Norėdami pakeisti žemėlapį: spustelėkite ant žalios mygtukų su juodo kryžiaus žemyn,; žalią mygtuką su brūkšneliu, jei norite nutolinti; arba žalių rodyklių gretimoms žemėlapius.


METAR-TAF: